�������l�o���
Date,Time,MP-1(��Sv/h),MP-2(��Sv/h),MP-3(��Sv/h),MP-4(��Sv/h),MP-5(��Sv/h),MP-6(��Sv/h),MP-7(��Sv/h),MP-8(��Sv/h),����,����(m/s),���J
2019/10/31,00:00,0.704,0.997,0.653,1.226,0.863,0.409,0.707,0.672,�k�k��,1.2,��
2019/10/31,00:10,0.703,0.997,0.655,1.226,0.865,0.411,0.707,0.671,-,CALM,��
2019/10/31,00:20,0.705,0.998,0.653,1.226,0.863,0.410,0.707,0.670,-,CALM,��
2019/10/31,00:30,0.703,0.997,0.652,1.227,0.861,0.408,0.707,0.672,-,CALM,��
2019/10/31,00:40,0.705,0.996,0.653,1.226,0.862,0.410,0.707,0.672,���k��,0.7,��
2019/10/31,00:50,0.704,0.996,0.650,1.226,0.864,0.410,0.707,0.671,�k�k��,1.1,��
2019/10/31,01:00,0.705,0.996,0.654,1.226,0.863,0.409,0.706,0.672,�k��,0.6,��
2019/10/31,01:10,0.703,0.997,0.653,1.228,0.865,0.410,0.706,0.672,-,CALM,��
2019/10/31,01:20,0.705,0.995,0.654,1.228,0.866,0.409,0.707,0.672,-,CALM,��
2019/10/31,01:30,0.705,0.996,0.652,1.226,0.864,0.409,0.706,0.670,��,0.6,��
2019/10/31,01:40,0.706,0.995,0.654,1.227,0.862,0.410,0.706,0.672,�쐼,1.2,��
2019/10/31,01:50,0.705,0.996,0.652,1.227,0.864,0.409,0.707,0.670,-,CALM,��
2019/10/31,02:00,0.707,0.995,0.651,1.228,0.862,0.407,0.705,0.672,-,CALM,��
2019/10/31,02:10,0.704,0.994,0.654,1.227,0.863,0.409,0.708,0.672,��,0.6,��
2019/10/31,02:20,0.704,0.995,0.653,1.228,0.865,0.410,0.705,0.672,��,0.5,��
2019/10/31,02:30,0.705,0.996,0.651,1.227,0.865,0.409,0.705,0.672,���k��,0.9,��
2019/10/31,02:40,0.703,0.995,0.653,1.226,0.865,0.410,0.706,0.672,���k��,0.8,��
2019/10/31,02:50,0.704,0.998,0.652,1.230,0.866,0.409,0.708,0.673,��,1.4,��
2019/10/31,03:00,0.705,0.996,0.654,1.229,0.862,0.409,0.708,0.673,���쐼,1.4,��
2019/10/31,03:10,0.705,0.995,0.654,1.226,0.863,0.409,0.706,0.671,���쐼,1.4,��
2019/10/31,03:20,0.703,0.996,0.651,1.226,0.865,0.411,0.705,0.671,��,2.1,��
2019/10/31,03:30,0.703,0.995,0.655,1.227,0.863,0.411,0.707,0.672,���쐼,1.5,��
2019/10/31,03:40,0.705,0.995,0.652,1.227,0.865,0.410,0.706,0.671,��,1.8,��
2019/10/31,03:50,0.705,0.995,0.654,1.226,0.865,0.409,0.707,0.670,��,2.6,��
2019/10/31,04:00,0.704,0.996,0.649,1.228,0.863,0.409,0.707,0.673,��,2.9,��
2019/10/31,04:10,0.703,0.996,0.653,1.228,0.864,0.409,0.707,0.671,��,2.8,��
2019/10/31,04:20,0.705,0.994,0.651,1.230,0.863,0.408,0.705,0.672,���쐼,2.5,��
2019/10/31,04:30,0.703,0.995,0.653,1.227,0.864,0.410,0.707,0.672,���쐼,2.2,��
2019/10/31,04:40,0.703,0.996,0.652,1.228,0.864,0.410,0.707,0.673,�쐼,2.0,��
2019/10/31,04:50,0.705,0.997,0.650,1.227,0.862,0.409,0.706,0.671,��,2.3,��
2019/10/31,05:00,0.704,0.995,0.653,1.228,0.863,0.410,0.706,0.672,��쐼,2.1,��
2019/10/31,05:10,0.705,0.997,0.652,1.227,0.865,0.408,0.707,0.672,��,1.9,��
2019/10/31,05:20,0.704,0.995,0.652,1.229,0.865,0.409,0.706,0.673,��,1.9,��
2019/10/31,05:30,0.703,0.995,0.651,1.229,0.861,0.409,0.707,0.671,��쐼,1.5,��
2019/10/31,05:40,0.705,0.997,0.651,1.227,0.865,0.409,0.707,0.672,��,1.2,��
2019/10/31,05:50,0.704,0.997,0.651,1.227,0.866,0.410,0.707,0.673,��,1.2,��
2019/10/31,06:00,0.705,0.997,0.652,1.228,0.865,0.409,0.705,0.673,�쐼,0.5,��
2019/10/31,06:10,0.706,0.996,0.652,1.231,0.866,0.409,0.706,0.673,��,1.0,��
2019/10/31,06:20,0.704,0.996,0.653,1.229,0.864,0.409,0.707,0.673,�쐼,0.8,��
2019/10/31,06:30,0.704,0.996,0.652,1.228,0.863,0.408,0.704,0.671,-,CALM,��
2019/10/31,06:40,0.704,0.997,0.651,1.230,0.865,0.410,0.706,0.673,���쐼,0.7,��
2019/10/31,06:50,0.704,0.997,0.653,1.230,0.864,0.410,0.705,0.673,��,1.2,��
2019/10/31,07:00,0.704,0.998,0.652,1.227,0.865,0.409,0.705,0.674,��,1.4,��
2019/10/31,07:10,0.703,0.996,0.652,1.228,0.864,0.409,0.706,0.672,���k��,1.2,��
2019/10/31,07:20,0.704,0.997,0.652,1.226,0.862,0.408,0.704,0.675,�k��,1.3,��
2019/10/31,07:30,0.706,0.997,0.652,1.226,0.863,0.408,0.706,0.673,��,1.4,��
2019/10/31,07:40,0.705,0.995,0.651,1.229,0.866,0.411,0.706,0.673,���쐼,2.1,��
2019/10/31,07:50,0.706,0.997,0.652,1.228,0.866,0.409,0.706,0.673,��,3.8,��
2019/10/31,08:00,0.704,0.996,0.654,1.231,0.865,0.410,0.706,0.674,���k��,4.2,��
2019/10/31,08:10,0.706,0.996,0.653,1.229,0.864,0.411,0.706,0.671,���k��,3.4,��
2019/10/31,08:20,0.704,0.994,0.651,1.229,0.866,0.409,0.706,0.671,��,0.5,��
2019/10/31,08:30,0.707,0.998,0.650,1.227,0.864,0.410,0.706,0.674,-,CALM,��
2019/10/31,08:40,0.705,0.994,0.651,1.230,0.866,0.411,0.706,0.673,���k��,0.5,��
2019/10/31,08:50,0.706,0.995,0.651,1.226,0.867,0.410,0.705,0.672,�k��,1.4,��
2019/10/31,09:00,0.705,0.992,0.652,1.230,0.864,0.409,0.704,0.673,���k��,0.9,��
2019/10/31,09:10,0.707,0.991,0.651,1.231,0.864,0.408,0.707,0.673,�k��,0.8,��
2019/10/31,09:20,0.709,0.994,0.652,1.232,0.866,0.410,0.706,0.674,���k��,0.9,��
2019/10/31,09:30,0.708,0.992,0.652,1.227,0.869,0.410,0.706,0.673,���쓌,1.0,��
2019/10/31,09:40,0.703,0.994,0.653,1.228,0.864,0.411,0.706,0.673,��,1.1,��
2019/10/31,09:50,0.701,0.991,0.652,1.230,0.867,0.410,0.705,0.672,��쓌,1.7,��
2019/10/31,10:00,0.701,0.993,0.652,1.230,0.864,0.409,0.706,0.675,��쓌,1.7,��
2019/10/31,10:10,0.703,0.995,0.649,1.232,0.863,0.409,0.707,0.673,��쓌,1.3,��
2019/10/31,10:20,0.701,0.993,0.650,1.229,0.865,0.409,0.707,0.672,��쓌,1.8,��
2019/10/31,10:30,0.700,0.992,0.650,1.230,0.865,0.409,0.707,0.673,��쓌,2.0,��
2019/10/31,10:40,0.701,0.993,0.652,1.231,0.866,0.408,0.707,0.673,��쓌,1.9,��
2019/10/31,10:50,0.700,0.993,0.652,1.231,0.866,0.408,0.707,0.672,�쓌,3.0,��
2019/10/31,11:00,0.703,0.993,0.651,1.230,0.867,0.408,0.706,0.673,�쓌,2.6,��
2019/10/31,11:10,0.701,0.992,0.651,1.231,0.866,0.409,0.707,0.672,��쓌,3.2,��
2019/10/31,11:20,0.701,0.994,0.653,1.230,0.866,0.410,0.707,0.673,�쓌,3.5,��
2019/10/31,11:30,0.703,0.996,0.651,1.231,0.867,0.409,0.708,0.672,�쓌,3.5,��
2019/10/31,11:40,0.699,0.996,0.654,1.231,0.868,0.408,0.708,0.673,��쓌,4.1,��
2019/10/31,11:50,0.701,0.998,0.654,1.232,0.869,0.408,0.709,0.674,��쓌,4.1,��
2019/10/31,12:00,0.702,0.999,0.653,1.233,0.866,0.410,0.709,0.674,��쓌,3.8,��
2019/10/31,12:10,0.703,1.001,0.653,1.231,0.868,0.411,0.709,0.672,��쓌,3.6,��
2019/10/31,12:20,0.706,1.003,0.652,1.231,0.869,0.411,0.709,0.671,��쓌,4.3,��
2019/10/31,12:30,0.706,1.002,0.651,1.232,0.868,0.411,0.708,0.670,��쓌,3.6,��
2019/10/31,12:40,0.707,1.003,0.654,1.234,0.869,0.412,0.709,0.673,��쓌,4.5,��
2019/10/31,12:50,0.708,1.003,0.655,1.235,0.870,0.412,0.709,0.670,��쓌,4.9,��
2019/10/31,13:00,0.707,1.004,0.654,1.232,0.873,0.411,0.709,0.671,��쓌,5.3,��
2019/10/31,13:10,0.707,0.999,0.653,1.232,0.869,0.412,0.709,0.672,��쓌,4.7,��
2019/10/31,13:20,0.708,1.001,0.654,1.232,0.871,0.410,0.709,0.672,��쓌,6.3,��
2019/10/31,13:30,0.704,0.999,0.652,1.231,0.869,0.411,0.709,0.672,��쓌,6.4,��
2019/10/31,13:40,0.703,1.002,0.653,1.231,0.870,0.410,0.710,0.673,��쓌,6.4,��
2019/10/31,13:50,0.703,1.000,0.653,1.231,0.869,0.412,0.708,0.672,��쓌,7.4,��
2019/10/31,14:00,0.702,1.000,0.654,1.235,0.871,0.413,0.709,0.673,��쓌,8.0,��
2019/10/31,14:10,0.703,1.003,0.655,1.234,0.867,0.411,0.707,0.672,��쓌,7.7,��
2019/10/31,14:20,0.705,1.003,0.655,1.234,0.869,0.412,0.709,0.672,��쓌,8.3,��
2019/10/31,14:30,0.705,1.002,0.655,1.234,0.870,0.412,0.709,0.672,��쓌,7.5,��
2019/10/31,14:40,0.703,1.002,0.656,1.234,0.871,0.412,0.709,0.671,��쓌,7.4,��
2019/10/31,14:50,0.706,1.005,0.654,1.235,0.869,0.413,0.709,0.672,��,9.4,��
2019/10/31,15:00,0.708,1.003,0.656,1.235,0.871,0.413,0.708,0.673,��,6.7,��
2019/10/31,15:10,0.708,1.003,0.654,1.233,0.870,0.415,0.707,0.671,��,8.0,��
2019/10/31,15:20,0.706,1.004,0.654,1.233,0.870,0.413,0.709,0.671,��,6.9,��
2019/10/31,15:30,0.708,1.006,0.653,1.234,0.871,0.413,0.709,0.671,��,7.7,��
2019/10/31,15:40,0.705,1.006,0.654,1.232,0.870,0.413,0.709,0.672,��,5.8,��
2019/10/31,15:50,0.706,1.006,0.654,1.234,0.871,0.414,0.710,0.671,��,6.9,��
2019/10/31,16:00,0.708,1.006,0.654,1.234,0.871,0.415,0.710,0.676,��,6.0,��
2019/10/31,16:10,0.706,1.006,0.654,1.233,0.872,0.416,0.711,0.673,��,7.4,��
2019/10/31,16:20,0.704,1.011,0.655,1.231,0.870,0.416,0.711,0.675,��,7.1,��
2019/10/31,16:30,0.706,1.010,0.654,1.235,0.869,0.415,0.711,0.676,��,7.1,��
2019/10/31,16:40,0.705,1.011,0.654,1.233,0.872,0.416,0.711,0.676,��,8.2,��
2019/10/31,16:50,0.707,1.012,0.655,1.234,0.869,0.416,0.710,0.675,��,8.0,��
2019/10/31,17:00,0.706,1.011,0.657,1.233,0.871,0.415,0.710,0.673,��,7.2,��
2019/10/31,17:10,0.706,1.012,0.656,1.233,0.870,0.415,0.711,0.674,��,8.2,��
2019/10/31,17:20,0.706,1.013,0.658,1.235,0.870,0.414,0.711,0.675,��,7.7,��
2019/10/31,17:30,0.710,1.011,0.654,1.234,0.872,0.416,0.710,0.674,��,7.7,��
2019/10/31,17:40,0.709,1.010,0.657,1.233,0.870,0.412,0.711,0.676,��쐼,7.4,��
2019/10/31,17:50,0.710,1.011,0.657,1.234,0.873,0.415,0.712,0.673,��쐼,7.1,��
2019/10/31,18:00,0.711,1.010,0.655,1.232,0.873,0.415,0.711,0.675,��쐼,6.9,��
2019/10/31,18:10,0.711,1.010,0.658,1.233,0.874,0.415,0.711,0.675,��,7.7,��
2019/10/31,18:20,0.710,1.009,0.658,1.235,0.874,0.416,0.712,0.675,��,6.9,��
2019/10/31,18:30,0.711,1.009,0.658,1.233,0.872,0.415,0.710,0.676,��쐼,6.0,��
2019/10/31,18:40,0.711,1.010,0.658,1.234,0.874,0.416,0.711,0.675,��쐼,5.3,��
2019/10/31,18:50,0.711,1.011,0.657,1.233,0.874,0.415,0.711,0.675,�쐼,6.6,��
2019/10/31,19:00,0.709,1.010,0.658,1.234,0.873,0.415,0.710,0.675,�쐼,5.7,��
2019/10/31,19:10,0.708,1.011,0.658,1.232,0.876,0.413,0.711,0.674,�쐼,6.0,��
2019/10/31,19:20,0.711,1.011,0.655,1.231,0.874,0.415,0.712,0.674,�쐼,7.1,��
2019/10/31,19:30,0.710,1.009,0.660,1.233,0.874,0.416,0.712,0.674,�쐼,6.9,��
2019/10/31,19:40,0.710,1.009,0.660,1.234,0.873,0.414,0.712,0.674,�쐼,6.9,��
2019/10/31,19:50,0.709,1.008,0.659,1.235,0.874,0.415,0.711,0.676,�쐼,8.0,��
2019/10/31,20:00,0.709,1.009,0.658,1.234,0.873,0.415,0.712,0.675,�쐼,8.5,��
2019/10/31,20:10,0.711,1.006,0.658,1.233,0.874,0.414,0.709,0.675,�쐼,7.8,��
2019/10/31,20:20,0.712,1.008,0.657,1.234,0.872,0.414,0.710,0.676,�쐼,7.8,��
2019/10/31,20:30,0.713,1.008,0.656,1.234,0.874,0.414,0.711,0.675,�쐼,7.7,��
2019/10/31,20:40,0.711,1.007,0.658,1.235,0.874,0.415,0.711,0.675,�쐼,7.4,��
2019/10/31,20:50,0.714,1.007,0.657,1.235,0.875,0.414,0.710,0.675,�쐼,8.5,��
2019/10/31,21:00,0.711,1.008,0.658,1.235,0.872,0.416,0.711,0.674,�쐼,7.1,��
2019/10/31,21:10,0.710,1.007,0.658,1.235,0.875,0.414,0.711,0.675,�쐼,6.6,��
2019/10/31,21:20,0.712,1.006,0.659,1.232,0.873,0.415,0.709,0.675,�쐼,7.1,��
2019/10/31,21:30,0.712,1.007,0.658,1.236,0.873,0.415,0.710,0.676,�쐼,7.7,��
2019/10/31,21:40,0.711,1.005,0.657,1.236,0.874,0.414,0.711,0.676,�쐼,7.5,��
2019/10/31,21:50,0.711,1.008,0.658,1.233,0.873,0.415,0.711,0.676,�쐼,6.4,��
2019/10/31,22:00,0.712,1.007,0.658,1.234,0.876,0.415,0.712,0.674,���쐼,6.6,��
2019/10/31,22:10,0.711,1.004,0.658,1.233,0.873,0.416,0.712,0.675,���쐼,6.0,��
2019/10/31,22:20,0.712,1.006,0.657,1.236,0.872,0.416,0.713,0.675,���쐼,5.7,��
2019/10/31,22:30,0.712,1.005,0.658,1.234,0.876,0.415,0.711,0.676,�쐼,5.8,��
2019/10/31,22:40,0.713,1.005,0.656,1.234,0.874,0.415,0.712,0.675,���쐼,6.7,��
2019/10/31,22:50,0.712,1.005,0.657,1.232,0.874,0.415,0.712,0.677,���쐼,5.0,��
2019/10/31,23:00,0.711,1.007,0.657,1.234,0.873,0.416,0.713,0.675,���쐼,4.5,��
2019/10/31,23:10,0.713,1.005,0.657,1.233,0.873,0.414,0.713,0.675,���쐼,4.1,��
2019/10/31,23:20,0.712,1.005,0.658,1.235,0.870,0.415,0.713,0.675,��,4.9,��
2019/10/31,23:30,0.710,1.006,0.659,1.235,0.871,0.416,0.711,0.675,��,5.0,��
2019/10/31,23:40,0.711,1.006,0.658,1.235,0.874,0.415,0.710,0.674,���쐼,3.3,��
2019/10/31,23:50,0.711,1.005,0.659,1.235,0.870,0.414,0.711,0.676,���쐼,3.4,��
